Date String (YYYY-MM-DD hh:mm:ss) UTC,Instrument flags,Ambient pressure (hPa),Sample flow (lpm),Bypass flow (lpm),Sample temperature (°C),Ambient temperature (°C),ASC tube jacket temperature (°C),LED temperature (°C),Box temperature (°C),Sample RH (%),Span deviation,Mass concentration (μg/m³),Mass concentration (μg/m³),Mass concentration (μg/m³)
DateTimeUTC,F1_M11,P_M11,Q1_M11,Q2_M11,T1_M11,T2_M11,T3_M11,T4_M11,T5_M11,U1_M11,ZSPAN_M11,X0_M11,X2_M11,X1_M11
2022-10-16 14:00:00,,0834.7,4.98,0.00,29.7,28.1,00.0,38.5,31.4,17.5,0000.4,0013.17,0008.61,0008.04
2022-10-16 14:01:00,,0834.7,5.00,0.00,29.7,28.2,00.0,38.5,31.5,17.5,0000.3,0013.23,0008.62,0008.03
2022-10-16 14:02:00,,0834.7,5.00,0.00,29.7,28.2,00.0,38.5,31.5,17.5,0000.4,0013.38,0008.61,0008.02
2022-10-16 14:03:00,,0834.8,4.99,0.00,29.7,28.2,00.0,38.5,31.4,17.5,0000.9,0013.31,0008.62,0008.02
2022-10-16 14:04:00,,0834.8,5.02,0.00,29.7,28.2,00.0,38.5,31.4,17.6,0001.1,0013.45,0008.63,0008.03
2022-10-16 14:05:00,,0834.8,5.00,0.00,29.7,28.1,00.0,38.5,31.5,17.6,0001.2,0014.21,0008.66,0008.04
2022-10-16 14:06:00,,0834.9,5.00,0.00,29.7,28.1,00.0,38.5,31.5,17.6,0001.4,0013.82,0008.67,0008.04
2022-10-16 14:07:00,,0834.9,5.00,0.00,29.7,28.1,00.0,38.5,31.4,17.6,0001.5,0013.74,0008.69,0008.04
2022-10-16 14:08:00,,0834.9,5.00,0.00,29.7,28.1,00.0,38.5,31.4,17.6,0001.6,0013.11,0008.70,0008.05
2022-10-16 14:09:00,,0835.0,5.00,0.00,29.7,28.2,00.0,38.5,31.5,17.6,0001.7,0013.22,0008.73,0008.07
2022-10-16 14:10:00,,0834.9,5.00,0.00,29.7,28.1,00.0,38.5,31.4,17.6,0001.9,0013.59,0008.75,0008.09
2022-10-16 14:11:00,,0834.9,5.00,0.00,29.7,28.1,00.0,38.5,31.4,17.5,0002.1,0013.54,0008.72,0008.09
2022-10-16 14:12:00,,0835.0,5.00,0.00,29.7,28.1,00.0,38.5,31.4,17.6,0002.1,0013.33,0008.70,0008.09
2022-10-16 14:13:00,,0835.0,5.00,0.00,29.7,28.2,00.0,38.5,31.4,17.5,0002.2,0013.85,0008.74,0008.10
2022-10-16 14:14:00,,0835.0,5.01,0.00,29.7,28.2,00.0,38.5,31.4,17.6,0001.7,0013.94,0008.74,0008.10
2022-10-16 14:15:00,,0835.0,5.00,0.00,29.7,28.1,00.0,38.5,31.4,17.6,0000.9,0013.63,0008.71,0008.10
2022-10-16 14:16:00,,0835.0,5.00,0.00,29.7,28.1,00.0,38.5,31.4,17.6,0000.7,0013.01,0008.67,0008.09
2022-10-16 14:17:00,,0835.0,4.99,0.00,29.7,28.2,00.0,38.5,31.4,17.7,0000.8,0012.92,0008.65,0008.10
2022-10-16 14:18:00,,0835.0,5.00,0.00,29.7,28.2,00.0,38.5,31.4,17.6,0001.0,0013.06,0008.63,0008.09
2022-10-16 14:19:00,,0835.0,4.99,0.00,29.7,28.1,00.0,38.5,31.4,17.7,0000.3,0013.53,0008.66,0008.09
2022-10-16 14:20:00,,0835.0,5.00,0.00,29.7,28.1,00.0,38.5,31.4,17.7,0000.0,0013.35,0008.64,0008.09
2022-10-16 14:21:00,,0835.0,5.00,0.00,29.7,28.1,00.0,38.5,31.5,17.6,0000.6,0013.07,0008.65,0008.10
2022-10-16 14:22:00,,0835.1,5.01,0.00,29.7,28.1,00.0,38.5,31.4,17.6,0000.8,0013.19,0008.71,0008.13
2022-10-16 14:23:00,,0835.1,5.00,0.00,29.7,28.1,00.0,38.5,31.4,17.6,0001.0,0013.19,0008.72,0008.16
2022-10-16 14:24:00,,0835.0,4.99,0.00,29.7,28.1,00.0,38.5,31.4,17.6,0001.0,0012.43,0008.70,0008.19
2022-10-16 14:25:00,,0835.1,5.00,0.00,29.7,28.1,00.0,38.5,31.4,17.6,0001.2,0012.50,0008.70,0008.21
2022-10-16 14:26:00,,0835.1,5.02,0.00,29.6,28.1,00.0,38.5,31.4,17.6,0001.5,0013.05,0008.75,0008.25
2022-10-16 14:27:00,,0835.0,4.99,0.00,29.6,28.1,00.0,38.5,31.4,17.7,0001.4,0014.01,0008.79,0008.29
2022-10-16 14:28:00,,0835.0,5.00,0.00,29.7,28.1,00.0,38.5,31.4,17.7,0001.3,0014.19,0008.85,0008.31
2022-10-16 14:29:00,,0835.0,5.00,0.00,29.7,28.1,00.0,38.5,31.5,17.8,0001.2,0014.20,0008.85,0008.33
2022-10-16 14:30:00,,0835.1,5.00,0.00,29.7,28.1,00.0,38.5,31.4,17.7,0001.1,0013.69,0008.85,0008.35
2022-10-16 14:31:00,,0835.1,5.00,0.00,29.6,28.1,00.0,38.5,31.4,17.7,0001.4,0013.72,0008.89,0008.39
2022-10-16 14:32:00,,0835.1,5.00,0.00,29.6,28.1,00.0,38.5,31.4,17.7,0001.8,0013.75,0008.91,0008.42
2022-10-16 14:33:00,,0835.0,5.00,0.00,29.6,28.1,00.0,38.5,31.4,17.8,0001.9,0014.04,0008.89,0008.40
2022-10-16 14:34:00,,0835.1,4.99,0.00,29.6,28.1,00.0,38.5,31.4,17.8,0001.7,0014.91,0008.88,0008.39
2022-10-16 14:35:00,,0835.2,4.99,0.00,29.6,28.1,00.0,38.5,31.4,17.7,0002.1,0014.98,0008.89,0008.38
2022-10-16 14:36:00,,0835.2,5.01,0.00,29.6,28.1,00.0,38.5,31.4,17.7,0002.6,0014.93,0008.92,0008.39
2022-10-16 14:37:00,,0835.2,5.01,0.00,29.7,28.1,00.0,38.5,31.4,17.7,0002.9,0014.73,0008.91,0008.39
2022-10-16 14:38:00,,0835.2,4.99,0.00,29.6,28.1,00.0,38.5,31.4,17.7,0003.2,0013.56,0008.94,0008.38
2022-10-16 14:39:00,,0835.2,4.99,0.00,29.6,28.1,00.0,38.5,31.4,17.6,0003.1,0013.41,0008.92,0008.38
2022-10-16 14:40:00,,0835.2,5.00,0.00,29.6,28.1,00.0,38.5,31.4,17.6,0002.8,0013.41,0008.95,0008.39
2022-10-16 14:41:00,,0835.2,5.00,0.00,29.7,28.1,00.0,38.5,31.4,17.6,0002.8,0013.33,0008.97,0008.42
2022-10-16 14:42:00,,0835.3,4.99,0.00,29.6,28.1,00.0,38.5,31.4,17.6,0002.8,0013.35,0008.96,0008.42
2022-10-16 14:43:00,,0835.3,5.00,0.00,29.6,28.1,00.0,38.5,31.4,17.7,0000.1,0013.38,0008.97,0008.41
2022-10-16 14:44:00,,0835.3,5.00,0.00,29.6,28.1,00.0,38.5,31.4,17.7,0000.0,0013.27,0009.00,0008.42
2022-10-16 14:45:00,,0835.3,5.00,0.00,29.6,28.1,00.0,38.5,31.4,17.7,0000.0,0012.69,0009.03,0008.43
2022-10-16 14:46:00,,0835.3,5.00,0.00,29.6,28.1,00.0,38.5,31.4,17.6,0000.7,0012.87,0009.06,0008.43
2022-10-16 14:47:00,,0835.4,5.01,0.00,29.6,28.1,00.0,38.5,31.4,17.6,0000.7,0012.93,0009.04,0008.41
2022-10-16 14:48:00,,0835.4,5.00,0.00,29.6,28.1,00.0,38.5,31.5,17.6,0000.2,0012.97,0009.06,0008.41
2022-10-16 14:49:00,,0835.3,5.00,0.00,29.7,28.1,00.0,38.5,31.5,17.5,0001.7,0012.92,0009.05,0008.41
2022-10-16 14:50:00,,0835.4,5.00,0.00,29.7,28.1,00.0,38.5,31.5,17.6,0001.5,0013.06,0009.06,0008.42
2022-10-16 14:51:00,,0835.5,5.00,0.00,29.6,28.1,00.0,38.5,31.4,17.5,0001.3,0012.98,0009.05,0008.43
2022-10-16 14:52:00,,0835.5,5.00,0.00,29.6,28.1,00.0,38.5,31.4,17.5,0001.2,0013.30,0009.04,0008.41
2022-10-16 14:53:00,,0835.5,5.00,0.00,29.6,28.1,00.0,38.5,31.5,17.5,0000.3,0013.30,0009.02,0008.38
2022-10-16 14:54:00,,0835.5,5.00,0.00,29.6,28.1,00.0,38.5,31.4,17.6,0000.6,0013.15,0008.97,0008.36
2022-10-16 14:55:00,,0835.5,5.00,0.00,29.6,28.1,00.0,38.5,31.4,17.6,0000.6,0013.15,0008.93,0008.33
2022-10-16 14:56:00,,0835.6,4.99,0.00,29.6,28.1,00.0,38.5,31.4,17.7,0000.5,0012.79,0008.88,0008.31
2022-10-16 14:57:00,,0835.5,5.00,0.00,29.6,28.1,00.0,38.5,31.4,17.7,0000.9,0012.47,0008.83,0008.29
2022-10-16 14:58:00,,0835.6,5.00,0.00,29.6,28.1,00.0,38.5,31.4,17.6,0001.4,0012.38,0008.82,0008.28
2022-10-16 14:59:00,,0835.6,5.00,0.00,29.6,28.1,00.0,38.5,31.4,17.5,0001.6,0012.83,0008.83,0008.27
